This is the latest recevied weather packets stored in our database for station/object K5SVV. If no packets are shown the sender has not sent any weather packets the latest 10 day(s).
| Time | Temp. | Humidity | Pressure | Rain* | Wind** | Luminosity | Snow |
|---|---|---|---|---|---|---|---|
| 1777507334 | 16.67° C | 96% | 1011 hPa | 0 mm | - | 65 W/m² | - |
| 1777507031 | 16.67° C | 96% | 1011 hPa | 0 mm | - | 65 W/m² | - |
| 1777506728 | 16.67° C | 95% | 1011.8 hPa | 0 mm | - | 54 W/m² | - |
| 1777506424 | 16.67° C | 95% | 1011.1 hPa | 0 mm | - | 78 W/m² | - |
| 1777506120 | 16.11° C | 95% | 1011.5 hPa | 0 mm | - | 69 W/m² | - |
| 1777505815 | 16.11° C | 95% | 1011.8 hPa | 0 mm | - | 91 W/m² | - |
| 1777505512 | 16.11° C | 95% | 1012 hPa | 0 mm | - | 86 W/m² | - |
| 1777505210 | 16.11° C | 95% | 1011.9 hPa | 1.27 mm | - | 101 W/m² | - |
| 1777504906 | 16.11° C | 95% | 1012.1 hPa | 3.05 mm | - | 50 W/m² | - |
| 1777504604 | 16.11° C | 95% | 1011.6 hPa | 1.78 mm | - | 61 W/m² | - |
| 1777504299 | 16.11° C | 95% | 1012.4 hPa | 1.27 mm | - | 35 W/m² | - |
| 1777503995 | 16.11° C | 95% | 1012.3 hPa | 1.27 mm | - | 35 W/m² | - |
| 1777503692 | 16.67° C | 95% | 1012 hPa | 1.78 mm | - | 43 W/m² | - |
| 1777503388 | 16.67° C | 94% | 1012.1 hPa | 6.6 mm | - | 83 W/m² | - |
| 1777503084 | 16.67° C | 93% | 1012.2 hPa | 4.83 mm | - | 30 W/m² | - |
| 1777502782 | 16.67° C | 93% | 1012 hPa | 0 mm | - | 38 W/m² | - |
| 1777502479 | 16.67° C | 93% | 1012.5 hPa | 0 mm | - | 35 W/m² | - |
| 1777502176 | 16.67° C | 94% | 1012.6 hPa | 0 mm | - | 22 W/m² | - |
| 1777501874 | 16.67° C | 93% | 1012 hPa | 0 mm | - | 32 W/m² | - |
| 1777501570 | 16.67° C | 93% | 1012 hPa | 0 mm | - | 44 W/m² | - |
| 1777501267 | 16.67° C | 93% | 1012.1 hPa | 0 mm | - | 38 W/m² | - |
| 1777500966 | 16.67° C | 93% | 1011.7 hPa | 0 mm | - | 54 W/m² | - |
| 1777500663 | 16.67° C | 93% | 1012 hPa | 0 mm | - | 44 W/m² | - |
| 1777500359 | 16.67° C | 93% | 1012.3 hPa | 0 mm | - | 65 W/m² | - |
| 1777500055 | 16.67° C | 93% | 1012.2 hPa | 0 mm | - | 87 W/m² | - |
* Rain latest hour (hover to see other rain measurements)
** Current wind speed in m/s (hover to see current wind gust speed)